Flight Track Log - Related Links

Times and Time Zones

All times are in EST time to prevent confusion due to time zone crossing. See the N30VP flight status page for this flight to view local times or setup timezone preferences in your user account.

Time Position Orientation Groundspeed Altitude Reporting Facility
EST Latitude Longitude Course Direction KTS MPH feet Rate Location/Type
09:51AM 39.1500 -78.1667 237° Southwest 157 181 1,500  Level Potomac TRACON
09:52AM 39.1333 -78.2000 237° Southwest 242 278 5,100 2,250 Climbing Potomac TRACON
09:53AM 39.0667 -78.1500 150° Southeast 284 327 6,000 1,950 Climbing Potomac TRACON
09:54AM 39.0000 -78.1333 169° South 279 321 9,000 3,033 Climbing Potomac TRACON
09:54AM 38.9678 -78.1414 191° South 287 330 10,600 3,573 Climbing Washington Center
09:55AM 38.8844 -78.1411 180° South 319 367 14,300 3,407 Climbing Washington Center
09:56AM 38.7842 -78.1456 182° South 324 373 17,300 2,926 Climbing Washington Center
09:57AM 38.6986 -78.1428 179° South 372 428 20,200 1,835 Climbing Washington Center
09:58AM 38.5944 -78.1469 182° South 384 442 21,000 397 Climbing Washington Center
09:59AM 38.4858 -78.1486 181° South 384 442 21,000 303 Level Washington Center
10:00AM 38.3794 -78.1608 185° South 384 442 21,600 1,765 Climbing Washington Center
10:01AM 38.2967 -78.2242 211° Southwest 359 413 24,500 2,164 Climbing Washington Center
10:02AM 38.2242 -78.2983 219° Southwest 341 392 26,000 744 Climbing Washington Center
10:03AM 38.1472 -78.3747 218° Southwest 353 406 26,000  Level Washington Center
10:04AM 38.0639 -78.4561 218° Southwest 372 428 26,000  Level Washington Center
10:05AM 37.9869 -78.5347 219° Southwest 372 428 26,000  Level Washington Center
10:06AM 37.9036 -78.6158 218° Southwest 372 428 26,000  Level Washington Center
10:07AM 37.8225 -78.6939 217° Southwest 372 428 26,000  Level Washington Center
10:08AM 37.7411 -78.7719 217° Southwest 372 428 26,000  Level Washington Center
10:09AM 37.6511 -78.8575 217° Southwest 372 428 26,000  Level Washington Center
10:10AM 37.5697 -78.9378 218° Southwest 372 428 26,000  Level Washington Center
10:11AM 37.4883 -79.0153 217° Southwest 372 428 26,000  Level Washington Center
10:12AM 37.4067 -79.0928 217° Southwest 372 428 26,000  Level Washington Center
10:13AM 37.3253 -79.1700 217° Southwest 372 428 26,000  Level Washington Center
10:14AM 37.2439 -79.2417 215° Southwest 372 428 26,000  Level Washington Center
10:15AM 37.1481 -79.3025 207° Southwest 377 434 26,000  Level Washington Center
10:17AM 36.9714 -79.4108 205° Southwest 376 433 26,000  Level Washington Center
10:18AM 36.8778 -79.4686 206° Southwest 371 427 26,000  Level Washington Center
10:19AM 36.7861 -79.5261 207° Southwest 371 427 26,000 -541 Level Washington Center
10:20AM 36.6925 -79.5836 206° Southwest 371 427 24,900 -1,008 Descending Washington Center
10:21AM 36.5989 -79.6408 206° Southwest 366 421 24,000 -454 Descending Washington Center
10:22AM 36.5072 -79.6981 207° Southwest 366 421 24,000  Level Washington Center
10:23AM 36.3783 -79.7711 205° Southwest 366 421 24,000 -634 Level Atlanta Center
10:24AM 36.2925 -79.8269 208° Southwest 366 421 22,500 -2,200 Descending Atlanta Center
10:25AM 36.2044 -79.8753 204° Southwest 356 410 19,600 -1,750 Descending Atlanta Center
10:26AM 36.1289 -79.9231 207° Southwest 351 404 19,000 -950 Descending Atlanta Center
10:27AM 36.0361 -79.9483 192° South 351 404 17,700 -1,850 Descending Atlanta Center
10:28AM 35.9425 -79.9608 186° South 346 398 15,300 -2,450 Descending Atlanta Center
10:29AM 35.8511 -79.9703 185° South 341 392 12,800 -2,200 Descending Atlanta Center
10:30AM 35.7658 -79.9822 186° South 328 377 10,900 -1,600 Descending Atlanta Center
10:31AM 35.6808 -79.9917 185° South 303 349 9,600 -1,350 Descending Atlanta Center
10:32AM 35.6081 -80.0056 189° South 282 325 8,200 -1,400 Descending Atlanta Center
10:33AM 35.5397 -80.0139 186° South 267 307 6,800 -1,100 Descending Atlanta Center
10:34AM 35.4711 -80.0250 188° South 255 293 6,000 -593 Descending Atlanta Center
10:35AM 35.4483 -80.0261 182° South 251 289 6,000  Level Atlanta Center
10:35AM 35.4044 -80.0308 185° South 254 292 6,000  Level Atlanta Center
10:35AM 35.4006 -80.0336 210° Southwest 255 293 6,000  Level Atlanta Center
10:36AM 35.3319 -80.0419 186° South 254 292 6,000  Level Atlanta Center
10:36AM 35.3319 -80.0419 186° South 255 293 6,000 -400 Level Atlanta Center
10:37AM 35.2717 -80.0500 186° South 210 242 5,600 -400 Descending Atlanta Center
10:37AM 35.2694 -80.0500 180° South 248 285 5,600 -1,082 Level Atlanta Center
10:38AM 35.2111 -80.0528 182° South 230 265 4,500 -750 Descending Atlanta Center
10:39AM 35.1511 -80.0633 188° South 230 265 4,100 -400 Descending Atlanta Center
10:41AM 35.0540 -80.0667 180° South  Level FlightAware Approximate
10:48AM 35.0167 -80.0667 180° South  Level FlightAware Approximate
10:49AM 35.0206 -80.0771 180° South  Level Estimated
10:50AM 35.0206 -80.0771 180° South  Level Estimated
10:51AM 35.0206 -80.0771 180° South  Level Estimated

Login

Don't have an account? Register now (free) for customized features, flight alerts, and more!